DW6451 Weather Reports


Display with metric or nautical units.
time (UTC)temp
F
wind
direction
speed
MPH
gust
MPH
rain 1hr
in
rain 24hr
in
rain mn
in
humidity
%
barometer
mb
20260509130011 47 336 1.0 5.0 0.00 0.00 0.00 48 1003.0
20260509124509 47 327 0.0 5.0 0.00 0.00 0.00 51 1002.8
20260509123008 47 313 0.0 8.0 0.00 0.00 0.00 47 1002.5
20260509121536 47 275 1.0 6.0 0.00 0.00 0.00 47 1002.5
20260509120015 47 295 0.0 5.0 0.00 0.00 0.00 49 1002.3
20260509114526 47 329 0.0 3.0 0.00 0.00 0.00 50 1002.1
20260509113017 47 331 1.0 5.0 0.00 0.00 0.00 49 1001.9
20260509111506 47 305 1.0 5.0 0.00 0.00 0.00 50 1001.7
20260509110003 47 307 0.0 4.0 0.00 0.00 0.00 51 1001.4
20260509104502 47 306 0.0 4.0 0.00 0.00 0.00 51 1001.2
20260509103106 47 306 0.0 4.0 0.00 0.00 0.00 52 1001.1
20260509101623 47 303 1.0 4.0 0.00 0.00 0.00 53 1000.9
20260509100058 47 331 0.0 3.0 0.00 0.00 0.00 56 1000.8
20260509094603 47 332 0.0 3.0 0.00 0.00 0.00 57 1000.7
20260509093105 47 332 0.0 0.0 0.00 0.00 0.00 55 1000.5
20260509091602 47 332 0.0 2.0 0.00 0.00 0.00 55 1000.5
20260509084554 47 332 0.0 0.0 0.00 0.00 0.00 57 1000.3
20260509083053 47 332 0.0 1.0 0.00 0.00 0.00 57 1000.2
20260509081602 47 332 0.0 0.0 0.00 0.00 0.00 57 1000.2
20260509080050 47 332 0.0 1.0 0.00 0.00 0.00 57 1000.2
20260509074550 48 332 0.0 0.0 0.00 0.00 0.00 56 1000.2
20260509073056 48 332 0.0 0.0 0.00 0.00 0.00 55 1000.3
20260509071555 48 332 0.0 0.0 0.00 0.00 0.00 57 1000.7
20260509070048 48 332 0.0 1.0 0.00 0.00 0.00 57 1000.7
20260509064558 48 332 0.0 0.0 0.00 0.00 0.00 57 1000.7
20260509063046 48 332 0.0 1.0 0.00 0.00 0.00 57 1000.7
20260509061544 48 332 0.0 1.0 0.00 0.00 0.00 57 1000.8
20260509060042 48 332 0.0 1.0 0.00 0.00 0.00 57 1000.4
20260509054548 49 332 0.0 1.0 0.00 0.00 0.00 58 1000.2
20260509053040 49 332 0.0 1.0 0.00 0.00 0.00 58 1000.5
20260509051539 49 332 0.0 4.0 0.00 0.00 0.00 56 1000.4
20260509050037 48 333 0.0 1.0 0.00 0.00 0.00 58 1000.3
20260509044534 48 333 0.0 0.0 0.00 0.00 0.00 58 1000.1
20260509043033 48 333 0.0 0.0 0.00 0.00 0.00 58 1000.1
20260509041600 47 333 0.0 2.0 0.00 0.00 0.00 59 1000.3
20260509040033 47 333 1.0 3.0 0.00 0.00 0.00 63 1000.0
20260509034531 47 333 0.0 0.0 0.00 0.00 0.00 64 999.8
20260509033030 47 333 0.0 0.0 0.00 0.00 0.00 62 999.7
20260509031534 47 333 0.0 0.0 0.00 0.00 0.00 62 999.8
20260509030031 47 333 0.0 0.0 0.00 0.00 0.00 64 1000.0
20260509024528 47 333 0.0 0.0 0.00 0.00 0.00 63 999.9
20260509023029 47 333 0.0 3.0 0.00 0.00 0.00 64 1000.1
20260509021533 47 333 0.0 2.0 0.00 0.00 0.00 67 1000.1
20260509020040 48 332 0.0 2.0 0.00 0.00 0.00 68 999.9
20260509014526 48 332 0.0 3.0 0.00 0.00 0.00 70 1000.1
20260509013036 49 332 1.0 2.0 0.00 0.00 0.00 70 1000.0
20260509011523 50 332 0.0 2.0 0.00 0.00 0.00 69 999.9
20260509010022 50 332 0.0 5.0 0.00 0.00 0.00 68 1000.2
20260509004522 51 72 0.0 1.0 0.00 0.00 0.00 66 1000.1
20260509003018 51 72 0.0 2.0 0.00 0.00 0.00 65 1000.3
20260509001517 51 76 0.0 2.0 0.00 0.00 0.00 62 1000.6
20260509000015 52 76 1.0 5.0 0.00 0.00 0.00 61 1000.6
20260508234515 53 83 0.0 5.0 0.00 0.00 0.00 55 1000.8
20260508233016 56 42 1.0 5.0 0.00 0.00 0.00 52 1000.9
20260508231512 59 38 1.0 4.0 0.00 0.00 0.00 43 1000.9
20260508230010 60 39 0.0 5.0 0.00 0.00 0.00 42 1001.0
20260508224514 62 40 0.0 5.0 0.00 0.00 0.00 41 1001.1
20260508223008 63 93 0.0 3.0 0.00 0.00 0.00 33 1000.9
20260508221508 64 93 0.0 5.0 0.00 0.00 0.00 35 1001.1
20260508220004 64 94 0.0 3.0 0.00 0.00 0.00 32 1001.3
20260508214511 65 19 0.0 3.0 0.00 0.00 0.00 33 1001.5
20260508213001 65 19 0.0 3.0 0.00 0.00 0.00 38 1001.6
20260508211600 64 19 2.0 5.0 0.00 0.00 0.00 36 1001.7
20260508210057 63 32 1.0 3.0 0.00 0.00 0.00 31 1002.0
20260508204557 63 31 1.0 4.0 0.00 0.00 0.00 34 1002.2
20260508203054 63 32 1.0 4.0 0.00 0.00 0.00 35 1002.4
20260508201551 63 40 1.0 6.0 0.00 0.00 0.00 34 1002.8
20260508200106 64 269 0.0 7.0 0.00 0.00 0.00 31 1002.8
20260508194548 63 40 1.0 4.0 0.00 0.00 0.00 31 1003.3
20260508193110 63 360 3.0 6.0 0.00 0.00 0.00 34 1003.5
20260508191545 62 310 0.0 4.0 0.00 0.00 0.00 29 1003.8
20260508190041 63 313 0.0 6.0 0.00 0.00 0.00 29 1004.0
20260508184539 62 27 1.0 5.0 0.00 0.00 0.00 31 1004.2
20260508183037 63 33 2.0 6.0 0.00 0.00 0.00 30 1004.4
20260508181544 63 355 0.0 5.0 0.00 0.00 0.00 34 1004.5
20260508180035 63 243 3.0 6.0 0.00 0.00 0.00 29 1004.7
20260508174530 62 248 1.0 6.0 0.00 0.00 0.00 31 1005.0
20260508173028 62 317 3.0 9.0 0.00 0.00 0.00 30 1005.3
20260508171526 62 324 1.0 6.0 0.00 0.00 0.00 31 1005.5
20260508170023 61 323 0.0 7.0 0.00 0.00 0.00 30 1005.7
20260508164520 61 20 1.0 5.0 0.00 0.00 0.00 34 1005.9
20260508163023 61 322 2.0 7.0 0.00 0.00 0.00 32 1006.1
20260508161518 61 38 1.0 6.0 0.00 0.00 0.00 33 1006.1
20260508160014 60 279 0.0 6.0 0.00 0.00 0.00 37 1006.4
20260508154532 60 271 2.0 8.0 0.00 0.00 0.00 35 1006.5
20260508153012 59 319 2.0 8.0 0.00 0.00 0.00 34 1006.6
20260508151512 59 319 2.0 6.0 0.00 0.00 0.00 35 1006.6
20260508150005 58 332 1.0 5.0 0.00 0.00 0.00 38 1006.9
20260508144503 57 253 2.0 5.0 0.00 0.00 0.00 41 1007.0
20260508143105 56 262 1.0 5.0 0.00 0.00 0.00 40 1007.2
20260508141604 54 270 1.0 5.0 0.00 0.00 0.00 45 1007.4
20260508140050 52 219 2.0 5.0 0.00 0.00 0.00 49 1007.5
20260508134557 51 186 1.0 5.0 0.00 0.00 0.00 54 1007.6
20260508133050 48 265 1.0 5.0 0.00 0.00 0.00 59 1007.6
20260508131536 46 93 0.0 2.0 0.00 0.00 0.00 64 1007.7